#timestamp,LO_Frequency,Hit,StdDev 
1510016415.3,286046997.3,N
1510016435.1,286046997.1,Y
1510016455.9,286047002.0,P
1510016475.7,286047004.3,N
1510016495.5,286047001.5,N
1510016515.4,286047002.5,N
1510016535.2,286047000.6,N
1510016555.0,286047000.8,N
1510016555.9,286047000.8,N
1510016575.8,286046999.8,N
1510016595.6,286047002.4,N
1510016615.5,286047000.4,N
1510016635.3,286047002.8,N
1510016655.1,286047000.5,N
1510016675.9,286046998.6,N
1510016695.7,286046999.8,N
1510016715.5,286047002.0,N
1510016735.4,286047002.6,N
1510016755.2,286047001.8,N
1510016775.0,286047001.1,N
1510016776.0,286047001.1,N
1510016795.8,286047000.7,N
1510016815.6,286046998.4,N
1510016835.5,286047000.7,N
1510016855.3,286046998.2,N
1510016875.1,286046998.7,N
1510016895.9,286046998.5,N
1510016915.7,286047000.4,N
1510016935.6,286046998.1,N
1510016955.4,286047000.7,N
1510016975.2,286047002.6,N
1510016995.1,286047002.8,N
1510016996.0,286047002.8,N
1510017015.8,286047001.9,N
1510017035.6,286047001.0,N
1510017055.5,286046998.3,N
1510017075.3,286047000.8,N
1510017095.1,286046999.4,N
1510017115.9,286047000.7,N
1510017135.7,286046998.2,N
1510017155.6,286046996.7,N
1510017175.4,286046998.3,N
1510017195.2,286047001.2,N
1510017215.1,286046999.8,N
1510017216.0,286046999.8,N
1510017235.8,286046998.7,N
1510017255.7,286047000.5,N
1510017275.5,286047000.2,N
1510017295.3,286047000.9,N
1510017315.2,286046999.8,N
1510017335.0,286047000.0,N
1510017335.9,286047000.0,N
1510017355.8,286046998.9,N
1510017375.6,286046999.2,N
1510017395.4,286046996.9,N
1510017415.3,286046998.1,N
1510017435.1,286047000.4,N
1510017455.8,286047000.8,N
1510017475.7,286047001.2,N
1510017495.5,286047000.3,N
1510017515.4,286046999.7,N
1510017535.2,286047000.0,N
1510017555.0,286047000.2,N
1510017555.9,286047000.2,N
1510017575.8,286047000.9,N
1510017595.6,286046998.7,N
1510017615.4,286046998.1,N
1510017635.3,286046998.1,N
1510017655.1,286047000.8,N
1510017675.9,286047002.1,N
1510017695.7,286047001.9,N
1510017715.5,286047005.8,Y
1510017735.4,286047003.1,P
1510017755.2,286047004.1,N
1510017775.0,286047003.1,N
1510017776.0,286047003.1,N
1510017795.8,286047003.4,N
1510017815.6,286047004.1,Y
1510017835.5,286047000.0,P
1510017855.3,286047001.2,N
1510017875.1,286046999.5,N
1510017895.9,286046998.2,N
1510017915.7,286046996.5,N
1510017935.6,286046998.8,N
1510017955.4,286046998.6,N
1510017975.2,286046998.9,N
1510017995.1,286046996.7,N
1510017996.0,286046996.7,N
1510018015.8,286046999.6,N
1510018035.7,286046999.4,N
1510018055.5,286046998.8,N
1510018075.3,286047000.1,N
1510018095.2,286047001.1,N
1510018115.9,286046998.5,N
1510018135.7,286046999.5,N
1510018155.6,286046999.8,N
1510018175.4,286047000.9,N
1510018195.2,286047001.2,N
1510018215.1,286046998.3,N
1510018216.0,286046998.3,N
1510018235.8,286047000.4,N
1510018255.7,286047000.0,N
1510018275.5,286047000.3,N
1510018295.3,286047000.9,N
1510018315.2,286047002.2,N
1510018335.0,286047000.6,N
1510018335.9,286047000.6,N
1510018355.8,286047000.3,N
1510018375.6,286047000.6,N
1510018395.4,286047001.0,N
1510018415.3,286047000.7,N
1510018435.1,286047000.5,N
1510018455.8,286047001.9,N
1510018475.7,286047000.5,N
1510018495.5,286047000.1,N
1510018515.4,286047000.2,N
1510018535.2,286047000.6,N
1510018555.0,286046998.1,N
1510018555.9,286046998.1,N
1510018575.8,286046998.3,N
1510018595.6,286046999.4,N
1510018615.4,286046996.7,Y
1510018635.3,286046999.5,P
1510018655.1,286047001.1,P
1510018675.9,286047000.9,N
1510018695.7,286047001.0,N
1510018715.5,286047002.3,Y
1510018735.4,286047001.8,P
1510018755.2,286046999.7,N
1510018775.0,286047001.7,N
1510018775.9,286047001.7,N
1510018795.8,286046999.7,N
1510018815.6,286047000.0,N
1510018835.5,286047002.7,N
1510018855.3,286047002.8,N
1510018875.1,286047002.6,N
1510018895.9,286047001.4,N
1510018915.7,286047001.9,N
1510018935.5,286047002.8,N
1510018955.4,286047002.5,N
1510018975.2,286046999.7,N
1510018995.1,286047000.7,N
1510018996.0,286047000.7,N
1510019015.8,286047000.9,N
1510019035.6,286047000.0,N
1510019055.5,286047000.8,N
1510019075.3,286047001.2,N
1510019095.1,286047002.2,N
1510019115.9,286047001.9,N
1510019135.7,286047000.1,N
1510019155.6,286047000.4,N
1510019175.4,286047002.4,N
1510019195.2,286047002.2,N
1510019215.1,286046999.7,N
1510019216.0,286046999.7,N
1510019235.8,286047001.8,N
1510019255.7,286047002.1,N
1510019275.5,286047003.9,Y
1510019295.3,286047002.0,P
1510019315.2,286047002.5,P
1510019335.0,286047002.7,P
1510019335.9,286047002.7,Y
1510019355.8,286047000.8,P
1510019375.6,286047000.7,N
1510019395.4,286046998.5,N
1510019415.3,286047001.2,N
1510019435.1,286047000.1,N
1510019455.8,286047000.6,N
1510019475.7,286046998.5,N
1510019495.5,286046998.7,N
1510019515.3,286046998.3,N
1510019535.2,286046998.3,N
1510019555.0,286046998.4,N
1510019555.9,286046998.4,N
1510019575.8,286046999.6,N
1510019595.6,286046999.5,N
1510019615.4,286046999.1,N
1510019635.3,286046998.8,N
1510019655.1,286046996.9,N
1510019675.8,286046999.4,N
1510019695.7,286046999.4,N
1510019745.6,286046996.5,E
1510019755.5,286046998.2,N
1510019775.3,286047002.3,P
1510019795.2,286047003.6,N
1510019815.9,286047003.3,N
1510019835.7,286047003.1,N
1510019855.6,286047006.0,N
1510019875.4,286047005.7,N
1510019895.2,286047003.3,N
1510019915.1,286047005.7,N
1510019916.0,286047005.7,N
1510019935.8,286047006.0,N
1510019955.7,286047003.5,N
1510019975.5,286047001.8,N
1510019995.3,286047004.1,N
